Terug naar catalogus

CZ-4 DEB

ActiefSSO
NORAD 20899·DEBRIS·🇨🇳 China

Gelanceerd Sep 3, 1990 vanaf Taiyuan Satellite Launch Center

Loading…

Volgende Passages (komende 24 uur)

TLE

VersSource: Space-Track

Epoch: Sep 13, 2026, 19:13 UTC

1 20899U 90081BK  26256.80110782  .00005577  00000-0  91085-3 0  9994
2 20899  98.2923 345.3512 0006310 242.1676 242.3720 14.71286340869733

Volg CZ-4 DEB in realtime met AllMySat

Download on the App Store